Flag for U.S.A. Weather past 2 weeks in Farmington, New Mexico, U.S.A.

Now
83 °F

Sunny.


Feels Like: 80 °F
Forecast: 53 / 81 °F
Wind: 10 mph from Northwest

Location: Four Corners Regional Airport

Current Time: Sep 23, 2014 at 4:48:48 PM

Latest Report: Sep 23, 2014 at 3:53 PM


Visibility: 10 mi

Pressure: 30.00 "Hg

Humidity: 17%

Dew point: 33 °F

Location of FarmingtonLocation

Historic Weather in Farmington — Graph

°F

Farmington temperature yesterday

Maximum temperature yesterday: 79 °F (at 3:53 PM)
Minimum temperature yesterday: 59 °F (at 11:53 PM)
Average temperature yesterday: 69 °F

Past Weeks' High & Low Weather Summary

 TemperatureHumidityPressure
High89 °F (Sep 20, 5:53 PM)97% (Sep 10, 12:53 AM)30.15 "Hg (Sep 10, 12:53 AM)
Low47 °F (Sep 11, 6:53 AM)11% (Sep 12, 5:53 PM)29.77 "Hg (Sep 18, 5:53 PM)
Average69 °F48%29.99 "Hg
* Reported Sep 8 3:53 PM — Sep 23 3:53 PM, Farmington, Weather by CustomWeather, © 2014

Note: Actual official high and low records may vary slightly from our data, if they occured in-between our weather recording intervals... More about our weather records

Advertising

Farmington weather history for previous 24 hours

 ConditionsComfort  
Time TempWeatherWind HumidityBarometerVisibility
3:53 PM
Sep 23
83 °FSunny.10 mph17%30.00 "Hg10 mi
2:53 PM82 °FSunny.7 mph19%30.02 "Hg10 mi
1:53 PM81 °FSunny.10 mph24%30.05 "Hg10 mi
12:53 PM80 °FSunny.10 mph30%30.07 "Hg10 mi
11:53 AM74 °FSunny.No wind48%30.10 "Hg10 mi
10:53 AM71 °FSunny.5 mph53%30.12 "Hg10 mi
9:53 AM66 °FSunny.5 mph54%30.13 "Hg10 mi
8:53 AM62 °FSunny.9 mph54%30.12 "Hg10 mi
7:53 AM56 °FClear.9 mph65%30.12 "Hg10 mi
6:53 AM51 °FClear.5 mph71%30.11 "Hg10 mi
5:53 AM54 °FClear.9 mph67%30.08 "Hg10 mi
4:53 AM55 °FClear.9 mph67%30.07 "Hg10 mi
3:53 AM54 °FClear.5 mph69%30.07 "Hg10 mi
2:53 AM55 °FClear.8 mph69%30.07 "Hg10 mi
1:53 AM56 °FClear.7 mph67%30.08 "Hg10 mi
12:53 AM57 °FClear.6 mph64%30.07 "Hg10 mi
11:53 PM
Sep 22
59 °FClear.7 mph62%30.07 "Hg10 mi
10:53 PM61 °FClear.7 mph58%30.06 "Hg10 mi
9:53 PM64 °FClear.6 mph52%30.05 "Hg10 mi
8:53 PM68 °FClear.6 mph44%30.03 "Hg10 mi
7:53 PM72 °FSunny.3 mph40%30.01 "Hg10 mi
6:53 PM76 °FSunny.6 mph39%29.99 "Hg10 mi
5:53 PM79 °FPassing clouds.8 mph35%29.98 "Hg10 mi
4:53 PM79 °FSunny.10 mph39%30.00 "Hg10 mi
Weather by CustomWeather, © 2014

See weather overviewHow to use our weather pages